Henderson, KY

5:26 AM CDT on September 18, 2019 (GMT -0500)
Henderson City-County

Weather History for KEHR - July, 2019

Change the Weather History Date:

Wednesday, July 17, 2019

  Actual Average Record
Temperature  
Mean Temperature 81 °F -  
Max Temperature 89 °F 89 °F 100 °F (1932)
Min Temperature 73 °F 66 °F 53 °F (2014)
Cooling Degree Days 16    
Growing Degree Days 31 (Base 50)    
Moisture  
Dew Point 75 °F    
Average Humidity 84    
Maximum Humidity 97    
Minimum Humidity 70    
Precipitation  
Precipitation 0.00 in - - ()
Sea Level Pressure  
Sea Level Pressure 29.97 in    
Wind  
Wind Speed 7 mph (SW)    
Max Wind Speed 10 mph    
Max Gust Speed 22 mph    
Visibility 10 miles    
Events      
Averages and records for this station are not official NWS values.
T = Trace of Precipitation, MM = Missing Value Source: NWS Daily Summary

Daily Weather History Graph

Daily Weather History Graph

Search for Another Location

Airport or City:

Astronomy

Jul. 17, 2019 Rise Set
Actual Time 5:42 AM CDT 8:11 PM CDT
Civil Twilight 5:11 AM CDT 8:41 PM CDT
Nautical Twilight 4:34 AM CDT 9:19 PM CDT
Astronomical Twilight 3:52 AM CDT 10:00 PM CDT
Moon 9:00 PM CDT (7/17) 6:14 AM CDT (7/17)
Length of Visible Light 15h 29m
Length of Day
14h 29m
Full, 99% of the Moon is Illuminated
Jul 17
Full
Jul 24
Last Quarter
Jul 31
New
Aug 7
First Quarter
Aug 15
Full

Hourly Weather History & Observations

Time (CDT) Temp. Heat Index Dew Point Humidity Pressure Visibility Wind Dir Wind Speed Gust Speed Precip Events Conditions
12:05 AM 75.2 °F - 71.6 °F 89% 29.94 in 10.0 mi SSW 10.4 mph 17.3 mph N/A   Overcast
12:48 AM 75.2 °F - 71.6 °F 89% 29.94 in 10.0 mi SSW 8.1 mph - N/A   Mostly Cloudy
12:56 AM 75.0 °F - 72.0 °F 90% 29.93 in 10.0 mi SSW 8.1 mph - N/A   Overcast
1:56 AM 75.0 °F - 73.0 °F 94% 29.92 in 10.0 mi SW 8.1 mph - N/A   Overcast
2:56 AM 75.0 °F - 73.0 °F 94% 29.92 in 10.0 mi SW 6.9 mph - N/A   Overcast
3:56 AM 75.0 °F - 73.0 °F 94% 29.93 in 10.0 mi North - - N/A   Overcast
4:56 AM 75.0 °F - 73.9 °F 96% 29.94 in 10.0 mi SW 4.6 mph - N/A   Mostly Cloudy
5:11 AM 75.2 °F - 73.4 °F 94% 29.95 in 10.0 mi SW 4.6 mph - N/A   Mostly Cloudy
5:56 AM 73.9 °F - 73.0 °F 97% 29.95 in 9.0 mi SW 3.5 mph - 0.00 in   Mostly Cloudy
6:56 AM 75.9 °F - 73.9 °F 94% 29.96 in 10.0 mi WSW 4.6 mph - N/A   Mostly Cloudy
7:56 AM 79.0 °F - 75.0 °F 88% 29.97 in 10.0 mi WSW 5.8 mph - N/A   Scattered Clouds
8:14 AM 78.8 °F - 75.2 °F 89% 29.99 in 10.0 mi West 4.6 mph - N/A   Mostly Cloudy
8:21 AM 78.8 °F - 75.2 °F 89% 29.99 in 10.0 mi WSW 5.8 mph - N/A   Mostly Cloudy
8:56 AM 79.0 °F - 75.0 °F 88% 29.98 in 10.0 mi SW 5.8 mph - N/A   Overcast
9:56 AM 81.0 °F 87.3 °F 75.9 °F 85% 29.99 in 10.0 mi WSW 8.1 mph - N/A   Overcast
10:24 AM 82.4 °F 89.5 °F 75.2 °F 79% 30.01 in 10.0 mi SW 6.9 mph - N/A   Mostly Cloudy
10:44 AM 82.4 °F 89.5 °F 75.2 °F 79% 30.01 in 10.0 mi SW 8.1 mph - N/A   Scattered Clouds
10:56 AM 82.9 °F 90.8 °F 75.9 °F 79% 30.01 in 10.0 mi West 8.1 mph - N/A   Mostly Cloudy
11:03 AM 82.4 °F 89.5 °F 75.2 °F 79% 30.02 in 10.0 mi West 5.8 mph - N/A   Mostly Cloudy
11:56 AM 84.0 °F 92.6 °F 75.9 °F 76% 30.00 in 10.0 mi WSW 5.8 mph - N/A   Mostly Cloudy
12:06 PM 84.2 °F 94.1 °F 77.0 °F 79% 30.01 in 10.0 mi Variable 5.8 mph - N/A   Mostly Cloudy
12:33 PM 86.0 °F 96.9 °F 77.0 °F 74% 30.00 in 10.0 mi West 9.2 mph - N/A   Mostly Cloudy
12:56 PM 87.1 °F 98.8 °F 77.0 °F 72% 29.99 in 10.0 mi WSW 6.9 mph - N/A   Partly Cloudy
1:56 PM 87.1 °F 98.8 °F 77.0 °F 72% 29.97 in 10.0 mi SW 8.1 mph - N/A   Scattered Clouds
2:56 PM 87.1 °F 99.8 °F 78.1 °F 74% 29.96 in 10.0 mi SW 6.9 mph - N/A   Mostly Cloudy
3:56 PM 88.0 °F 100.2 °F 77.0 °F 70% 29.95 in 10.0 mi WSW 9.2 mph - N/A   Scattered Clouds
4:56 PM 89.1 °F 103.2 °F 78.1 °F 70% 29.94 in 10.0 mi WSW 6.9 mph - N/A   Scattered Clouds
5:56 PM 88.0 °F 101.3 °F 78.1 °F 72% 29.93 in 10.0 mi WSW 9.2 mph - N/A   Partly Cloudy
6:56 PM 86.0 °F 96.9 °F 77.0 °F 74% 29.94 in 10.0 mi SW 6.9 mph - N/A   Partly Cloudy
7:56 PM 82.0 °F 90.2 °F 77.0 °F 85% 29.96 in 10.0 mi WSW 4.6 mph - N/A   Clear
8:56 PM 80.1 °F 85.1 °F 75.0 °F 85% 29.97 in 10.0 mi SW 5.8 mph - N/A   Clear
9:56 PM 80.1 °F 83.6 °F 71.1 °F 74% 29.96 in 10.0 mi West 9.2 mph 21.9 mph N/A   Clear
10:56 PM 75.0 °F - 71.1 °F 87% 29.95 in 10.0 mi WSW 9.2 mph - N/A   Clear
11:56 PM 73.0 °F - 72.0 °F 96% 29.93 in 10.0 mi SW 5.8 mph - N/A   Clear